changsha , China , ASIA

  • Thursday
    July 18

      Cloudy

      82 °F

      Northwest

       

  • Friday
    July 19

    Cloudy  Cloudy

    93 °F  82 °F

    Northwest  South

        

  • Saturday
    July 20

    Cloudy  Cloudy

    95 °F  82 °F

    South  South

        

  • Sunday
    July 21

    Cloudy  Sunny

    97 °F  84 °F

    South  South

        

  • Monday
    July 22

    Sunny  Sunny

    97 °F  84 °F

    South  South

        

  • Tuesday
    July 23

    Sunny  Sunny

    97 °F  84 °F

    South  South

        

  • Wednesday
    July 24

    Sunny  Sunny

    99 °F  84 °F

    Southeast  South

        

Date   Weather Temperature Humidity Total_rain Visibility Wind
23:00 Cloudy 85°F 94.8% 0mm 999.9km Northeast  1.7m/s
02:00 Cloudy 85°F 95.7% 0mm 999.9km Northwest  2.9m/s
05:00 Cloudy 83°F 96.5% 0mm 999.9km Northwest  2.7m/s
08:00 Cloudy 86°F 95.3% 0mm 999.9km Northwest  3.1m/s
11:00 Cloudy 90°F 91.2% 0mm 999.9km Northwest  3.1m/s
14:00 Cloudy 92°F 89.9% 0mm 999.9km Northwest  3.1m/s
17:00 Cloudy 93°F 87.3% 0mm 999.9km Northwest  2.1m/s
20:00 Cloudy 87°F 82.8% 0mm 999.9km Northwest  1.0m/s
23:00 Cloudy 85°F 93.9% 0mm 999.9km Northwest  1.2m/s
02:00 Cloudy 84°F 94% 0mm 999.9km Northwest  1.3m/s
05:00 Cloudy 83°F 94.6% 0mm 999.9km Northwest  1.1m/s
08:00 Cloudy 86°F 91.5% 0mm 999.9km Northwest  1.1m/s
11:00 Cloudy 89°F 86.1% 0mm 999.9km Northwest  1.3m/s
14:00 Cloudy 94°F 73.7% 0mm 999.9km Southwest  1.7m/s
17:00 Cloudy 95°F 73.3% 0mm 999.9km Southwest  1.1m/s
20:00 Cloudy 89°F 67.2% 0mm 999.9km Southwest  1.5m/s
23:00 Cloudy 85°F 90.7% 0mm 999.9km Southwest  2.1m/s
02:00 Cloudy 84°F 90.9% 0mm 999.9km Southwest  2.0m/s
05:00 Cloudy 83°F 90.7% 0mm 999.9km Southwest  2.4m/s
08:00 Cloudy 87°F 87.6% 0mm 999.9km Southeast  2.9m/s
11:00 Cloudy 93°F 72.8% 0mm 999.9km Southwest  3.7m/s
14:00 Cloudy 96°F 68.9% 0mm 999.9km Southwest  3.6m/s
17:00 Cloudy 94°F 75.1% 0mm 999.9km Southwest  2.9m/s
20:00 Cloudy 87°F 66.1% 0mm 999.9km Southeast  2.9m/s
23:00 Sunny 86°F 92.4% 0mm 999.9km Southeast  3.0m/s
02:00 Sunny 85°F 93.6% 0mm 999.9km Southeast  2.6m/s
05:00 Sunny 85°F 93.6% 0mm 999.9km Southeast  2.9m/s
08:00 Sunny 88°F 89.1% 0mm 999.9km Southwest  3.2m/s
11:00 Sunny 93°F 76.4% 0mm 999.9km Southwest  3.8m/s
14:00 Sunny 96°F 72.6% 0mm 999.9km Southwest  3.4m/s
17:00 Sunny 96°F 73.8% 0mm 999.9km Southwest  3.8m/s
20:00 Sunny 89°F 88.6% 0mm 999.9km Southeast  3.6m/s
23:00 Sunny 87°F 91.6% 0mm 999.9km Southeast  3.6m/s
02:00 Sunny 86°F 93.4% 0mm 999.9km Southeast  3.2m/s
05:00 Sunny 85°F 94.6% 0mm 999.9km Southeast  3.5m/s
08:00 Sunny 87°F 91.8% 0mm 999.9km Southeast  3.9m/s
11:00 Sunny 95°F 77.6% 0mm 999.9km Southwest  4.4m/s
14:00 Sunny 96°F 73.7% 0mm 999.9km Southwest  3.8m/s
17:00 Sunny 93°F 86% 0mm 999.9km Southwest  1.7m/s
20:00 Sunny 88°F 71.7% 0mm 999.9km Southeast  3.4m/s
23:00 Sunny 88°F 92.5% 0mm 999.9km Southeast  2.7m/s
02:00 Sunny 86°F 95.3% 0mm 999.9km Southeast  3.3m/s
05:00 Sunny 85°F 92.3% 0mm 999.9km Southeast  3.8m/s
08:00 Sunny 89°F 90.2% 0mm 999.9km Southwest  5.0m/s
11:00 Sunny 95°F 81.7% 0mm 999.9km Southwest  5.4m/s
14:00 Sunny 98°F 77.9% 0mm 999.9km Southwest  5.0m/s
17:00 Sunny 98°F 80.5% 0mm 999.9km Southwest  3.9m/s
20:00 Sunny 93°F 73% 0mm 999.9km Southeast  4.3m/s
23:00 Sunny 89°F 86.6% 0mm 999.9km Southwest  3.4m/s
02:00 Sunny 85°F 92.8% 0mm 999.9km Southwest  3.5m/s
05:00 Sunny 86°F 90.3% 0mm 999.9km Southwest  3.6m/s